Radiation Dose at Monitoring Post of Fukushima Daini Nuclear Power Station
Date,Time,MP-1(microSv/h),MP-2(microSv/h),MP-3(microSv/h),MP-4(microSv/h),MP-5(microSv/h),MP-6(microSv/h),MP-7(microSv/h),Wind Direction,Wind Velocity(m/s),Rain
2024/03/11,00:00,0.144,0.127,0.205,0.194,0.203,0.115,0.076,west-northwest,5.9,No
2024/03/11,00:10,0.145,0.127,0.207,0.195,0.203,0.115,0.075,northwest,7.5,No
2024/03/11,00:20,0.146,0.127,0.206,0.195,0.203,0.114,0.075,northwest,6.4,No
2024/03/11,00:30,0.146,0.127,0.205,0.194,0.204,0.115,0.075,northwest,5.6,No
2024/03/11,00:40,0.145,0.127,0.205,0.195,0.203,0.115,0.074,northwest,5.6,No
2024/03/11,00:50,0.145,0.127,0.206,0.195,0.204,0.115,0.076,northwest,5.0,No
2024/03/11,01:00,0.146,0.127,0.205,0.194,0.203,0.114,0.075,northwest,4.9,No
2024/03/11,01:10,0.145,0.127,0.206,0.193,0.202,0.114,0.075,northwest,4.7,No
2024/03/11,01:20,0.145,0.127,0.206,0.195,0.204,0.116,0.076,northwest,5.5,No
2024/03/11,01:30,0.145,0.126,0.205,0.194,0.204,0.114,0.075,northwest,5.5,No
2024/03/11,01:40,0.144,0.127,0.205,0.194,0.205,0.114,0.075,northwest,6.3,No
2024/03/11,01:50,0.145,0.128,0.204,0.194,0.204,0.114,0.075,northwest,6.3,No
2024/03/11,02:00,0.145,0.128,0.205,0.194,0.204,0.114,0.074,northwest,6.2,No
2024/03/11,02:10,0.145,0.127,0.205,0.194,0.203,0.114,0.075,northwest,6.2,No
2024/03/11,02:20,0.145,0.127,0.206,0.194,0.203,0.114,0.075,northwest,5.1,No
2024/03/11,02:30,0.146,0.127,0.206,0.195,0.203,0.114,0.074,northwest,5.0,No
2024/03/11,02:40,0.145,0.127,0.205,0.195,0.203,0.114,0.074,northwest,5.5,No
2024/03/11,02:50,0.145,0.127,0.206,0.194,0.203,0.115,0.075,northwest,4.1,No
2024/03/11,03:00,0.145,0.127,0.204,0.193,0.204,0.115,0.075,west-northwest,4.2,No
2024/03/11,03:10,0.144,0.127,0.206,0.195,0.204,0.115,0.075,west-northwest,3.7,No
2024/03/11,03:20,0.146,0.127,0.205,0.194,0.203,0.114,0.075,northwest,4.2,No
2024/03/11,03:30,0.145,0.127,0.204,0.194,0.204,0.114,0.075,west-northwest,5.4,No
2024/03/11,03:40,0.145,0.127,0.205,0.195,0.203,0.114,0.075,northwest,4.3,No
2024/03/11,03:50,0.144,0.127,0.205,0.194,0.203,0.114,0.075,northwest,4.3,No
2024/03/11,04:00,0.144,0.127,0.206,0.194,0.203,0.114,0.075,west-northwest,5.7,No
2024/03/11,04:10,0.145,0.127,0.204,0.194,0.204,0.115,0.074,northwest,3.4,No
2024/03/11,04:20,0.145,0.127,0.205,0.194,0.205,0.115,0.075,west-northwest,4.2,No
2024/03/11,04:30,0.146,0.127,0.206,0.194,0.203,0.115,0.074,west-northwest,5.2,No
2024/03/11,04:40,0.145,0.128,0.205,0.193,0.204,0.115,0.075,west-northwest,3.7,No
2024/03/11,04:50,0.145,0.127,0.204,0.194,0.204,0.116,0.074,west-northwest,4.8,No
2024/03/11,05:00,0.145,0.127,0.205,0.194,0.203,0.115,0.075,west-northwest,3.6,No
2024/03/11,05:10,0.145,0.128,0.205,0.195,0.203,0.115,0.075,west-northwest,3.6,No
2024/03/11,05:20,0.145,0.127,0.206,0.194,0.204,0.114,0.074,west-northwest,4.4,No
2024/03/11,05:30,0.145,0.127,0.205,0.194,0.203,0.114,0.075,west,5.5,No
2024/03/11,05:40,0.145,0.126,0.204,0.194,0.203,0.115,0.075,west-northwest,5.6,No
2024/03/11,05:50,0.145,0.127,0.205,0.194,0.203,0.115,0.075,west,4.5,No
2024/03/11,06:00,0.145,0.127,0.205,0.194,0.204,0.115,0.074,west-northwest,4.9,No
2024/03/11,06:10,0.145,0.127,0.204,0.194,0.203,0.114,0.075,west-northwest,4.5,No
2024/03/11,06:20,0.145,0.128,0.205,0.195,0.203,0.115,0.074,west-northwest,4.0,No
2024/03/11,06:30,0.144,0.127,0.205,0.194,0.204,0.115,0.074,west-northwest,4.5,No
2024/03/11,06:40,0.145,0.128,0.205,0.194,0.203,0.115,0.075,west-northwest,4.8,No
2024/03/11,06:50,0.145,0.127,0.206,0.195,0.203,0.115,0.076,west-northwest,4.9,No
2024/03/11,07:00,0.145,0.127,0.205,0.194,0.203,0.115,0.075,west-northwest,3.7,No
2024/03/11,07:10,0.144,0.126,0.206,0.194,0.203,0.115,0.075,northwest,2.0,No
2024/03/11,07:20,0.144,0.127,0.205,0.193,0.204,0.115,0.076,west-northwest,2.4,No
2024/03/11,07:30,0.144,0.127,0.204,0.193,0.203,0.115,0.074,west,1.9,No
2024/03/11,07:40,0.144,0.126,0.205,0.194,0.203,0.114,0.075,west,2.0,No
2024/03/11,07:50,0.144,0.126,0.204,0.192,0.203,0.115,0.075,west-northwest,2.5,No
2024/03/11,08:00,0.145,0.128,0.206,0.191,0.204,0.115,0.074,west-northwest,2.9,No
2024/03/11,08:10,0.145,0.127,0.205,0.194,0.204,0.114,0.075,west-northwest,2.9,No
2024/03/11,08:20,0.145,0.127,0.204,0.193,0.202,0.114,0.075,west,3.1,No
2024/03/11,08:30,0.144,0.127,0.203,0.193,0.203,0.115,0.074,west,3.5,No
2024/03/11,08:40,0.145,0.126,0.205,0.194,0.202,0.114,0.075,west,4.2,No
2024/03/11,08:50,0.144,0.126,0.204,0.192,0.203,0.116,0.075,west-northwest,5.2,No
2024/03/11,09:00,0.146,0.127,0.204,0.192,0.202,0.114,0.075,west-northwest,4.5,No
2024/03/11,09:10,0.144,0.127,0.202,0.193,0.203,0.115,0.075,west-northwest,4.4,No
2024/03/11,09:20,0.144,0.126,0.203,0.193,0.203,0.114,0.075,northwest,3.9,No
2024/03/11,09:30,0.145,0.127,0.205,0.194,0.203,0.114,0.074,west-northwest,3.2,No
2024/03/11,09:40,0.144,0.127,0.206,0.193,0.202,0.114,0.074,northwest,5.0,No
2024/03/11,09:50,0.144,0.126,0.204,0.193,0.204,0.114,0.074,west-northwest,4.1,No
2024/03/11,10:00,0.144,0.127,0.205,0.194,0.202,0.115,0.075,west-northwest,3.9,No
2024/03/11,10:10,0.143,0.127,0.206,0.193,0.204,0.114,0.075,northwest,1.8,No
2024/03/11,10:20,0.146,0.127,0.204,0.194,0.202,0.114,0.075,west,4.3,No
2024/03/11,10:30,0.144,0.127,0.206,0.193,0.204,0.114,0.075,west,2.8,No
2024/03/11,10:40,0.145,0.127,0.203,0.194,0.203,0.115,0.074,-,CALM,No
2024/03/11,10:50,0.144,0.127,0.205,0.193,0.203,0.114,0.075,southwest,2.2,No
2024/03/11,11:00,0.145,0.127,0.204,0.194,0.201,0.115,0.075,west,1.6,No
2024/03/11,11:10,0.144,0.127,0.204,0.193,0.204,0.114,0.075,west-southwest,1.5,No
2024/03/11,11:20,0.144,0.127,0.204,0.194,0.201,0.115,0.075,south,3.1,No
2024/03/11,11:30,0.144,0.127,0.204,0.194,0.206,0.114,0.075,south,3.7,No
2024/03/11,11:40,0.145,0.126,0.205,0.194,0.202,0.115,0.075,southeast,3.2,No
2024/03/11,11:50,0.144,0.127,0.204,0.193,0.204,0.114,0.075,southeast,5.3,No
2024/03/11,12:00,0.145,0.126,0.204,0.194,0.204,0.116,0.075,southeast,4.3,No
2024/03/11,12:10,0.145,0.127,0.205,0.194,0.203,0.114,0.076,southeast,3.6,No
2024/03/11,12:20,0.143,0.126,0.204,0.195,0.204,0.115,0.075,southeast,3.8,No
2024/03/11,12:30,0.144,0.127,0.204,0.194,0.205,0.115,0.075,south-southeast,4.3,No
2024/03/11,12:40,0.143,0.127,0.206,0.196,0.205,0.115,0.075,south-southeast,5.6,No
2024/03/11,12:50,0.145,0.127,0.207,0.194,0.203,0.114,0.074,south-southeast,5.6,No
2024/03/11,13:00,0.144,0.126,0.204,0.195,0.206,0.116,0.075,south-southeast,6.8,No
2024/03/11,13:10,0.144,0.127,0.205,0.194,0.203,0.115,0.075,south-southeast,6.7,No
2024/03/11,13:20,0.145,0.127,0.205,0.195,0.204,0.115,0.075,southeast,7.3,No
2024/03/11,13:30,0.144,0.127,0.206,0.194,0.203,0.114,0.075,south-southeast,8.1,No
2024/03/11,13:40,0.145,0.128,0.204,0.196,0.204,0.115,0.074,south-southeast,7.5,No
2024/03/11,13:50,0.144,0.128,0.205,0.193,0.203,0.115,0.075,south-southeast,7.3,No
2024/03/11,14:00,0.145,0.127,0.205,0.196,0.205,0.115,0.074,south-southeast,7.1,No
2024/03/11,14:10,0.145,0.128,0.206,0.195,0.202,0.115,0.075,south-southeast,7.4,No
2024/03/11,14:20,0.146,0.127,0.205,0.195,0.204,0.116,0.075,south-southeast,6.3,No
2024/03/11,14:30,0.144,0.127,0.205,0.194,0.204,0.115,0.075,south,8.7,No
2024/03/11,14:40,0.145,0.128,0.205,0.193,0.205,0.115,0.076,south-southeast,7.9,No
2024/03/11,14:50,0.144,0.126,0.206,0.195,0.204,0.114,0.074,south,8.2,No
2024/03/11,15:00,0.146,0.127,0.207,0.195,0.205,0.114,0.075,south-southeast,8.4,No
2024/03/11,15:10,0.145,0.126,0.206,0.195,0.204,0.115,0.075,south-southeast,7.8,No
2024/03/11,15:20,0.145,0.127,0.207,0.195,0.205,0.116,0.075,south-southeast,8.2,No
2024/03/11,15:30,0.144,0.128,0.207,0.196,0.205,0.115,0.075,south-southeast,7.5,No
2024/03/11,15:40,0.146,0.127,0.207,0.196,0.205,0.115,0.075,south-southeast,7.8,No
2024/03/11,15:50,0.145,0.128,0.206,0.196,0.204,0.114,0.075,south-southeast,7.3,No
2024/03/11,16:00,0.146,0.128,0.208,0.195,0.204,0.115,0.074,south-southeast,7.0,No
2024/03/11,16:10,0.146,0.127,0.207,0.195,0.205,0.114,0.075,south-southeast,6.8,No
2024/03/11,16:20,0.145,0.128,0.206,0.195,0.204,0.115,0.075,south-southeast,8.1,No
2024/03/11,16:30,0.146,0.128,0.207,0.195,0.204,0.115,0.075,south-southeast,8.8,No
2024/03/11,16:40,0.145,0.127,0.206,0.196,0.205,0.115,0.075,south,7.4,No
2024/03/11,16:50,0.145,0.127,0.207,0.195,0.204,0.114,0.075,south,7.0,No
2024/03/11,17:00,0.147,0.128,0.207,0.195,0.205,0.115,0.075,south,5.2,No
2024/03/11,17:10,0.146,0.129,0.205,0.196,0.207,0.114,0.075,south,5.3,No
2024/03/11,17:20,0.146,0.127,0.206,0.196,0.205,0.116,0.075,south-southwest,4.9,No
2024/03/11,17:30,0.145,0.128,0.206,0.196,0.206,0.115,0.075,south-southwest,4.8,No
2024/03/11,17:40,0.145,0.127,0.206,0.196,0.205,0.115,0.075,south-southwest,4.4,No
2024/03/11,17:50,0.146,0.127,0.206,0.195,0.205,0.116,0.074,south-southwest,5.2,No
2024/03/11,18:00,0.145,0.128,0.206,0.195,0.204,0.115,0.075,south-southwest,5.9,No
2024/03/11,18:10,0.146,0.127,0.207,0.194,0.204,0.115,0.075,south-southwest,5.0,No
2024/03/11,18:20,0.145,0.127,0.206,0.196,0.203,0.116,0.075,south-southwest,3.5,No
2024/03/11,18:30,0.146,0.128,0.207,0.195,0.204,0.115,0.074,south-southwest,2.1,No
2024/03/11,18:40,0.146,0.128,0.206,0.195,0.204,0.115,0.075,southwest,3.8,No
2024/03/11,18:50,0.146,0.127,0.207,0.195,0.204,0.116,0.075,southwest,4.5,No
2024/03/11,19:00,0.146,0.128,0.207,0.195,0.206,0.115,0.075,south-southwest,3.7,No
2024/03/11,19:10,0.145,0.127,0.206,0.196,0.205,0.115,0.075,southwest,4.7,No
2024/03/11,19:20,0.146,0.128,0.206,0.196,0.204,0.115,0.075,southwest,5.3,No
2024/03/11,19:30,0.147,0.128,0.207,0.195,0.205,0.115,0.075,southwest,5.1,No
2024/03/11,19:40,0.147,0.128,0.207,0.195,0.204,0.115,0.075,southwest,4.2,No
2024/03/11,19:50,0.146,0.128,0.207,0.196,0.205,0.116,0.075,southwest,5.4,No
2024/03/11,20:00,0.146,0.127,0.207,0.196,0.206,0.115,0.075,southwest,5.0,No
2024/03/11,20:10,0.146,0.129,0.206,0.196,0.205,0.115,0.075,west-southwest,3.9,No
2024/03/11,20:20,0.146,0.129,0.208,0.196,0.204,0.115,0.075,southwest,2.4,No
2024/03/11,20:30,0.147,0.128,0.207,0.195,0.205,0.115,0.075,southwest,3.2,No
2024/03/11,20:40,0.147,0.128,0.206,0.197,0.204,0.116,0.076,southwest,4.2,No
2024/03/11,20:50,0.146,0.128,0.207,0.196,0.205,0.116,0.075,southwest,4.2,No
2024/03/11,21:00,0.145,0.128,0.207,0.195,0.204,0.116,0.076,south-southwest,4.2,No
2024/03/11,21:10,0.146,0.128,0.207,0.196,0.205,0.116,0.076,south-southwest,4.1,No
2024/03/11,21:20,0.146,0.128,0.207,0.195,0.204,0.116,0.076,southwest,3.3,No
2024/03/11,21:30,0.145,0.128,0.206,0.195,0.204,0.115,0.075,southwest,4.8,No
2024/03/11,21:40,0.145,0.127,0.207,0.194,0.206,0.115,0.075,southwest,4.6,No
2024/03/11,21:50,0.146,0.126,0.207,0.196,0.204,0.115,0.076,southwest,3.5,No
2024/03/11,22:00,0.145,0.128,0.207,0.196,0.205,0.115,0.075,west-southwest,3.9,No
2024/03/11,22:10,0.146,0.128,0.207,0.195,0.204,0.116,0.075,west-southwest,2.7,No
2024/03/11,22:20,0.146,0.127,0.207,0.194,0.205,0.116,0.076,west-southwest,2.7,No
2024/03/11,22:30,0.146,0.129,0.208,0.196,0.205,0.116,0.075,south-southwest,2.0,No
2024/03/11,22:40,0.146,0.128,0.206,0.196,0.204,0.115,0.076,southwest,4.1,No
2024/03/11,22:50,0.145,0.129,0.207,0.196,0.203,0.115,0.075,southwest,3.8,No
2024/03/11,23:00,0.145,0.127,0.207,0.196,0.206,0.115,0.075,southwest,4.2,No
2024/03/11,23:10,0.146,0.128,0.207,0.195,0.204,0.115,0.075,southwest,4.0,No
2024/03/11,23:20,0.145,0.128,0.206,0.196,0.205,0.115,0.075,southwest,3.6,No
2024/03/11,23:30,0.145,0.128,0.207,0.196,0.204,0.115,0.075,west-southwest,4.8,No
2024/03/11,23:40,0.146,0.128,0.206,0.196,0.204,0.115,0.075,west-southwest,4.5,No
2024/03/11,23:50,0.147,0.127,0.206,0.196,0.204,0.115,0.075,southwest,4.9,No
